This is the latest recevied weather packets stored in our database for station/object IZ1UQG-N2. If no packets are shown the sender has not sent any weather packets the latest 10 day(s).
| Time | Temp. | Humidity | Pressure | Rain* | Wind** | Luminosity | Snow |
|---|---|---|---|---|---|---|---|
| 1788000225 | 27.78° C | 45% | 1012 hPa | 0 mm | - | 703 W/m² | - |
| 1788000165 | 27.78° C | 46% | 1012 hPa | 0 mm | - | 703 W/m² | - |
| 1788000105 | 27.78° C | 47% | 1012 hPa | 0 mm | - | 703 W/m² | - |
| 1788000044 | 27.78° C | 46% | 1011.9 hPa | 0 mm | - | 703 W/m² | - |
| 1787999985 | 27.78° C | 46% | 1012.1 hPa | 0 mm | - | 703 W/m² | - |
| 1787999924 | 27.78° C | 46% | 1012 hPa | 0 mm | - | 703 W/m² | - |
| 1787999866 | 27.78° C | 45% | 1012.1 hPa | 0 mm | - | 703 W/m² | - |
| 1787999806 | 27.78° C | 45% | 1012 hPa | 0 mm | - | 703 W/m² | - |
| 1787999746 | 27.78° C | 47% | 1012 hPa | 0 mm | - | 703 W/m² | - |
| 1787999684 | 27.78° C | 45% | 1012 hPa | 0 mm | - | 703 W/m² | - |
| 1787999626 | 27.78° C | 46% | 1012.1 hPa | 0 mm | - | 703 W/m² | - |
| 1787999565 | 27.78° C | 49% | 1012.2 hPa | 0 mm | - | 703 W/m² | - |
| 1787999507 | 27.78° C | 51% | 1012.1 hPa | 0 mm | - | 703 W/m² | - |
| 1787999445 | 26.67° C | 46% | 1012.1 hPa | 0 mm | - | 703 W/m² | - |
| 1787999385 | 26.67° C | 46% | 1012.2 hPa | 0 mm | - | 708 W/m² | - |
| 1787999326 | 26.67° C | 46% | 1012.1 hPa | 0 mm | - | 705 W/m² | - |
| 1787999266 | 26.67° C | 46% | 1012.1 hPa | 0 mm | - | 701 W/m² | - |
| 1787999205 | 26.67° C | 47% | 1012.1 hPa | 0 mm | - | 707 W/m² | - |
| 1787999146 | 26.67° C | 46% | 1012.2 hPa | 0 mm | - | 708 W/m² | - |
| 1787999085 | 26.67° C | 45% | 1012.2 hPa | 0 mm | - | 715 W/m² | - |
| 1787999024 | 26.67° C | 45% | 1012.2 hPa | 0 mm | - | 712 W/m² | - |
| 1787998966 | 26.67° C | 44% | 1012.1 hPa | 0 mm | - | 719 W/m² | - |
| 1787998906 | 26.67° C | 45% | 1012.2 hPa | 0 mm | - | 698 W/m² | - |
| 1787998846 | 26.67° C | 46% | 1012.1 hPa | 0 mm | - | 708 W/m² | - |
| 1787998784 | 26.67° C | 45% | 1012.3 hPa | 0 mm | - | 708 W/m² | - |
* Rain latest hour (hover to see other rain measurements)
** Current wind speed in m/s (hover to see current wind gust speed)